Time,TemperatureF,DewpointF,PressureIn,WindDirection,WindDirectionDegrees,WindSpeedMPH,WindSpeedGustMPH,Humidity,HourlyPrecipIn,Conditions,Clouds,dailyrainin,SoftwareType,DateUTC
2013-04-20 00:08:00,54.7,52.0,29.65,NNE,32,0.0,1.0,91,0.07,,,0.00,weatherlink.com 1.10,2013-04-20 04:08:00,
2013-04-20 00:23:00,54.3,52.0,29.66,NW,325,0.0,1.0,92,0.02,,,0.00,weatherlink.com 1.10,2013-04-20 04:23:00,
2013-04-20 00:38:00,53.8,52.0,29.64,NNW,333,0.0,1.0,93,0.02,,,0.01,weatherlink.com 1.10,2013-04-20 04:38:00,
2013-04-20 00:54:00,53.0,51.0,29.65,NW,325,0.0,2.0,93,0.02,,,0.01,weatherlink.com 1.10,2013-04-20 04:54:00,
2013-04-20 01:09:00,50.6,48.0,29.67,NE,41,6.0,8.0,89,0.02,,,0.02,weatherlink.com 1.10,2013-04-20 05:09:00,
2013-04-20 01:24:00,49.5,46.0,29.68,West,278,0.0,5.0,87,0.02,,,0.02,weatherlink.com 1.10,2013-04-20 05:24:00,
2013-04-20 01:39:00,48.8,46.0,29.69,SSE,159,1.0,1.0,90,0.02,,,0.03,weatherlink.com 1.10,2013-04-20 05:39:00,
2013-04-20 01:54:00,48.3,46.0,29.68,SW,219,1.0,1.0,91,0.02,,,0.03,weatherlink.com 1.10,2013-04-20 05:54:00,
2013-04-20 02:09:00,47.8,46.0,29.69,NNW,348,1.0,2.0,92,0.01,,,0.03,weatherlink.com 1.10,2013-04-20 06:09:00,
2013-04-20 02:24:00,47.5,45.0,29.68,NNE,12,2.0,4.0,91,0.01,,,0.03,weatherlink.com 1.10,2013-04-20 06:24:00,
2013-04-20 02:39:00,46.7,44.0,29.68,NNW,345,2.0,8.0,89,0.01,,,0.04,weatherlink.com 1.10,2013-04-20 06:39:00,
2013-04-20 02:54:00,46.0,43.0,29.71,NW,325,2.0,3.0,89,0.02,,,0.05,weatherlink.com 1.10,2013-04-20 06:54:00,
2013-04-20 03:09:00,44.3,41.0,29.71,NW,319,0.0,9.0,88,0.03,,,0.06,weatherlink.com 1.10,2013-04-20 07:09:00,
2013-04-20 03:24:00,43.4,40.0,29.70,NNW,328,0.0,0.0,89,0.03,,,0.06,weatherlink.com 1.10,2013-04-20 07:24:00,
2013-04-20 03:39:00,43.0,40.0,29.72,WNW,288,0.0,9.0,88,0.03,,,0.07,weatherlink.com 1.10,2013-04-20 07:39:00,
2013-04-20 03:54:00,42.8,39.0,29.71,SSW,200,0.0,5.0,87,0.03,,,0.08,weatherlink.com 1.10,2013-04-20 07:54:00,
2013-04-20 04:09:00,42.7,39.0,29.70,SE,143,0.0,3.0,88,0.02,,,0.08,weatherlink.com 1.10,2013-04-20 08:09:00,
2013-04-20 04:24:00,41.9,39.0,29.73,SW,236,0.0,9.0,89,0.03,,,0.09,weatherlink.com 1.10,2013-04-20 08:24:00,
2013-04-20 04:39:00,41.5,39.0,29.73,SW,218,0.0,1.0,89,0.04,,,0.11,weatherlink.com 1.10,2013-04-20 08:39:00,
2013-04-20 04:54:00,41.2,39.0,29.72,WSW,249,2.0,2.0,90,0.04,,,0.12,weatherlink.com 1.10,2013-04-20 08:54:00,
2013-04-20 05:09:00,41.1,38.0,29.74,WSW,256,2.0,3.0,90,0.04,,,0.12,weatherlink.com 1.10,2013-04-20 09:09:00,
2013-04-20 05:24:00,40.9,39.0,29.73,SE,127,0.0,1.0,91,0.04,,,0.13,weatherlink.com 1.10,2013-04-20 09:24:00,
2013-04-20 05:39:00,40.9,39.0,29.72,SE,127,0.0,1.0,91,0.02,,,0.13,weatherlink.com 1.10,2013-04-20 09:39:00,
2013-04-20 05:54:00,41.0,39.0,29.73,SE,127,0.0,0.0,92,0.01,,,0.13,weatherlink.com 1.10,2013-04-20 09:54:00,
2013-04-20 06:09:00,41.1,39.0,29.74,SSW,208,0.0,1.0,92,0.01,,,0.13,weatherlink.com 1.10,2013-04-20 10:09:00,
2013-04-20 06:24:00,40.7,39.0,29.74,SSW,200,0.0,2.0,92,0.00,,,0.13,weatherlink.com 1.10,2013-04-20 10:24:00,
2013-04-20 06:39:00,40.8,39.0,29.77,West,266,1.0,2.0,92,0.00,,,0.13,weatherlink.com 1.10,2013-04-20 10:39:00,
2013-04-20 06:54:00,40.9,39.0,29.77,WNW,296,0.0,2.0,92,0.00,,,0.13,weatherlink.com 1.10,2013-04-20 10:54:00,
2013-04-20 07:10:00,41.5,39.0,29.77,WNW,296,0.0,1.0,92,0.00,,,0.13,weatherlink.com 1.10,2013-04-20 11:10:00,
2013-04-20 07:25:00,41.5,39.0,29.77,WNW,297,0.0,1.0,92,0.00,,,0.13,weatherlink.com 1.10,2013-04-20 11:25:00,
2013-04-20 07:40:00,42.2,40.0,29.78,WNW,297,0.0,1.0,92,0.00,,,0.13,weatherlink.com 1.10,2013-04-20 11:40:00,
2013-04-20 07:55:00,42.8,41.0,29.78,West,274,0.0,2.0,92,0.00,,,0.13,weatherlink.com 1.10,2013-04-20 11:55:00,
2013-04-20 08:10:00,42.9,40.0,29.79,SSW,195,1.0,2.0,89,0.00,,,0.13,weatherlink.com 1.10,2013-04-20 12:10:00,
2013-04-20 08:25:00,43.4,40.0,29.79,South,177,0.0,1.0,86,0.00,,,0.13,weatherlink.com 1.10,2013-04-20 12:25:00,
2013-04-20 08:40:00,43.9,40.0,29.79,SW,233,0.0,1.0,85,0.00,,,0.13,weatherlink.com 1.10,2013-04-20 12:40:00,
2013-04-20 08:55:00,44.3,39.0,29.80,SSW,208,0.0,1.0,83,0.00,,,0.13,weatherlink.com 1.10,2013-04-20 12:55:00,
2013-04-20 09:10:00,45.8,39.0,29.79,North,5,5.0,5.0,77,0.00,,,0.13,weatherlink.com 1.10,2013-04-20 13:10:00,
2013-04-20 09:25:00,47.0,40.0,29.79,WNW,301,1.0,6.0,77,0.00,,,0.13,weatherlink.com 1.10,2013-04-20 13:25:00,
2013-04-20 09:40:00,47.0,36.0,29.79,WNW,296,0.0,11.0,66,0.00,,,0.13,weatherlink.com 1.10,2013-04-20 13:40:00,
2013-04-20 09:55:00,47.5,35.0,29.79,ENE,65,4.0,8.0,63,0.00,,,0.13,weatherlink.com 1.10,2013-04-20 13:55:00,
2013-04-20 10:10:00,48.1,33.0,29.80,WSW,243,4.0,11.0,57,0.00,,,0.13,weatherlink.com 1.10,2013-04-20 14:10:00,
2013-04-20 10:25:00,48.3,32.0,29.81,SE,141,4.0,16.0,54,0.00,,,0.13,weatherlink.com 1.10,2013-04-20 14:25:00,
2013-04-20 10:40:00,49.2,33.0,29.80,SSW,208,6.0,8.0,53,0.00,,,0.13,weatherlink.com 1.10,2013-04-20 14:40:00,
2013-04-20 10:55:00,48.8,32.0,29.81,NNW,335,4.0,14.0,52,0.00,,,0.13,weatherlink.com 1.10,2013-04-20 14:55:00,
2013-04-20 11:10:00,48.9,31.0,29.82,NNW,335,2.0,16.0,50,0.00,,,0.13,weatherlink.com 1.10,2013-04-20 15:10:00,
2013-04-20 11:26:00,48.9,31.0,29.82,SSE,156,2.0,12.0,50,0.00,,,0.13,weatherlink.com 1.10,2013-04-20 15:26:00,
2013-04-20 11:41:00,48.8,31.0,29.84,NNW,337,5.0,12.0,51,0.00,,,0.13,weatherlink.com 1.10,2013-04-20 15:41:00,
2013-04-20 11:56:00,49.9,31.0,29.84,SE,124,4.0,14.0,49,0.00,,,0.13,weatherlink.com 1.10,2013-04-20 15:56:00,
2013-04-20 12:11:00,49.6,30.0,29.85,WSW,243,2.0,14.0,48,0.00,,,0.13,weatherlink.com 1.10,2013-04-20 16:11:00,
2013-04-20 12:26:00,50.3,32.0,29.84,South,184,4.0,16.0,49,0.00,,,0.13,weatherlink.com 1.10,2013-04-20 16:26:00,
2013-04-20 12:41:00,51.3,31.0,29.85,WSW,249,1.0,15.0,47,0.00,,,0.13,weatherlink.com 1.10,2013-04-20 16:41:00,
2013-04-20 12:56:00,50.1,31.0,29.85,WSW,242,4.0,10.0,49,0.00,,,0.13,weatherlink.com 1.10,2013-04-20 16:56:00,
2013-04-20 13:11:00,50.6,32.0,29.85,SSW,193,9.0,9.0,49,0.00,,,0.13,weatherlink.com 1.10,2013-04-20 17:11:00,
2013-04-20 13:26:00,50.1,31.0,29.86,SSW,205,3.0,13.0,48,0.00,,,0.13,weatherlink.com 1.10,2013-04-20 17:26:00,
2013-04-20 13:41:00,49.5,31.0,29.87,SSW,197,2.0,19.0,50,0.00,,,0.13,weatherlink.com 1.10,2013-04-20 17:41:00,
2013-04-20 13:56:00,49.6,31.0,29.87,South,190,1.0,12.0,49,0.00,,,0.13,weatherlink.com 1.10,2013-04-20 17:56:00,
2013-04-20 14:11:00,49.6,31.0,29.88,ENE,65,0.0,6.0,50,0.00,,,0.13,weatherlink.com 1.10,2013-04-20 18:11:00,
2013-04-20 14:26:00,49.6,31.0,29.88,NNW,329,2.0,5.0,50,0.00,,,0.13,weatherlink.com 1.10,2013-04-20 18:26:00,
2013-04-20 14:41:00,50.9,31.0,29.88,SSE,159,2.0,10.0,47,0.00,,,0.13,weatherlink.com 1.10,2013-04-20 18:41:00,
2013-04-20 14:56:00,51.8,31.0,29.88,SE,138,4.0,11.0,45,0.00,,,0.13,weatherlink.com 1.10,2013-04-20 18:56:00,
2013-04-20 15:11:00,52.4,30.0,29.88,NW,311,0.0,12.0,42,0.00,,,0.13,weatherlink.com 1.10,2013-04-20 19:11:00,
2013-04-20 15:26:00,52.1,28.0,29.89,WNW,300,6.0,14.0,40,0.00,,,0.13,weatherlink.com 1.10,2013-04-20 19:26:00,
2013-04-20 15:41:00,51.1,29.0,29.90,North,354,4.0,12.0,43,0.00,,,0.13,weatherlink.com 1.10,2013-04-20 19:41:00,
2013-04-20 15:56:00,52.2,30.0,29.91,East,99,5.0,26.0,43,0.00,,,0.13,weatherlink.com 1.10,2013-04-20 19:56:00,
2013-04-20 16:11:00,52.5,27.0,29.92,SE,124,0.0,17.0,38,0.00,,,0.13,weatherlink.com 1.10,2013-04-20 20:11:00,
2013-04-20 16:26:00,51.2,26.0,29.93,West,277,5.0,15.0,38,0.00,,,0.13,weatherlink.com 1.10,2013-04-20 20:26:00,
2013-04-20 16:41:00,51.0,27.0,29.94,SW,236,4.0,10.0,39,0.00,,,0.13,weatherlink.com 1.10,2013-04-20 20:41:00,
2013-04-20 16:56:00,51.2,27.0,29.96,NNW,337,4.0,13.0,39,0.00,,,0.13,weatherlink.com 1.10,2013-04-20 20:56:00,
2013-04-20 17:11:00,50.3,27.0,29.97,South,172,1.0,15.0,41,0.00,,,0.13,weatherlink.com 1.10,2013-04-20 21:11:00,
2013-04-20 17:26:00,50.3,27.0,29.98,SSW,194,0.0,10.0,41,0.00,,,0.13,weatherlink.com 1.10,2013-04-20 21:26:00,
2013-04-20 17:41:00,50.6,24.0,29.99,North,8,4.0,13.0,36,0.00,,,0.13,weatherlink.com 1.10,2013-04-20 21:41:00,
2013-04-20 17:56:00,50.0,24.0,30.00,West,281,2.0,11.0,36,0.00,,,0.13,weatherlink.com 1.10,2013-04-20 21:56:00,
2013-04-20 18:11:00,49.5,24.0,30.01,SW,226,5.0,12.0,37,0.00,,,0.13,weatherlink.com 1.10,2013-04-20 22:11:00,
2013-04-20 18:26:00,49.1,23.0,30.02,SSW,195,8.0,14.0,36,0.00,,,0.13,weatherlink.com 1.10,2013-04-20 22:26:00,
2013-04-20 18:41:00,47.6,23.0,30.03,NW,319,1.0,12.0,38,0.00,,,0.13,weatherlink.com 1.10,2013-04-20 22:41:00,
2013-04-20 18:56:00,46.5,24.0,30.04,SE,145,1.0,8.0,42,0.00,,,0.13,weatherlink.com 1.10,2013-04-20 22:56:00,
2013-04-20 19:11:00,46.0,24.0,30.06,SSE,167,5.0,7.0,42,0.00,,,0.13,weatherlink.com 1.10,2013-04-20 23:11:00,
2013-04-20 19:26:00,45.2,23.0,30.07,SW,226,1.0,14.0,42,0.00,,,0.13,weatherlink.com 1.10,2013-04-20 23:26:00,
2013-04-20 19:42:00,44.7,23.0,30.08,SSE,152,1.0,11.0,42,0.00,,,0.13,weatherlink.com 1.10,2013-04-20 23:42:00,
2013-04-20 19:57:00,44.1,24.0,30.10,NNW,330,1.0,5.0,45,0.00,,,0.13,weatherlink.com 1.10,2013-04-20 23:57:00,
2013-04-20 20:12:00,43.5,23.0,30.12,West,274,0.0,14.0,45,0.00,,,0.13,weatherlink.com 1.10,2013-04-21 00:12:00,
2013-04-20 20:27:00,42.8,22.0,30.14,NNW,329,5.0,15.0,44,0.00,,,0.13,weatherlink.com 1.10,2013-04-21 00:27:00,
2013-04-20 20:42:00,42.3,22.0,30.15,North,10,1.0,13.0,44,0.00,,,0.13,weatherlink.com 1.10,2013-04-21 00:42:00,
2013-04-20 20:57:00,41.7,21.0,30.16,SSE,150,6.0,11.0,44,0.00,,,0.13,weatherlink.com 1.10,2013-04-21 00:57:00,
2013-04-20 21:12:00,41.1,20.0,30.18,North,352,0.0,11.0,43,0.00,,,0.13,weatherlink.com 1.10,2013-04-21 01:12:00,
2013-04-20 21:27:00,40.4,21.0,30.19,North,10,1.0,8.0,46,0.00,,,0.13,weatherlink.com 1.10,2013-04-21 01:27:00,
2013-04-20 21:42:00,39.9,20.0,30.20,WSW,243,0.0,14.0,46,0.00,,,0.13,weatherlink.com 1.10,2013-04-21 01:42:00,
2013-04-20 21:57:00,39.6,21.0,30.20,SSE,162,5.0,13.0,48,0.00,,,0.13,weatherlink.com 1.10,2013-04-21 01:57:00,
2013-04-20 22:12:00,39.2,21.0,30.21,SE,132,1.0,12.0,49,0.00,,,0.13,weatherlink.com 1.10,2013-04-21 02:12:00,
2013-04-20 22:27:00,38.5,20.0,30.22,SSW,193,3.0,14.0,48,0.00,,,0.13,weatherlink.com 1.10,2013-04-21 02:27:00,
2013-04-20 22:42:00,38.1,20.0,30.23,SSW,208,2.0,13.0,48,0.00,,,0.13,weatherlink.com 1.10,2013-04-21 02:42:00,
2013-04-20 22:57:00,37.9,20.0,30.24,SW,235,4.0,12.0,48,0.00,,,0.13,weatherlink.com 1.10,2013-04-21 02:57:00,
2013-04-20 23:12:00,37.6,19.0,30.25,NW,308,2.0,15.0,47,0.00,,,0.13,weatherlink.com 1.10,2013-04-21 03:12:00,
2013-04-20 23:27:00,37.2,18.0,30.26,SW,224,5.0,10.0,47,0.00,,,0.13,weatherlink.com 1.10,2013-04-21 03:27:00,
2013-04-20 23:42:00,36.9,18.0,30.27,NW,325,1.0,17.0,46,0.00,,,0.13,weatherlink.com 1.10,2013-04-21 03:42:00,
2013-04-20 23:57:00,36.6,18.0,30.26,West,262,4.0,10.0,47,0.00,,,0.13,weatherlink.com 1.10,2013-04-21 03:57:00,